Flag for U.S.A. Weather past 2 weeks in Farmington, New Mexico, U.S.A.

Now
84 °F

Clear.


Feels Like: 81 °F
Forecast: 71 / 93 °F
Wind: 23 mph from Southeast

Location: Four Corners Regional Airport

Current Time: Jul 22, 2014 at 11:30:48 PM

Latest Report: Jul 22, 2014 at 10:53 PM


Visibility: 10 mi

Pressure: 30.07 "Hg

Humidity: 24%

Dew point: 43 °F

Location of FarmingtonLocation

Historic Weather in Farmington — Graph

°F

Farmington temperature yesterday

Maximum temperature yesterday: 93 °F (at 1:53 PM)
Minimum temperature yesterday: 64 °F (at 5:53 AM)
Average temperature yesterday: 80 °F

Past Weeks' High & Low Weather Summary

 TemperatureHumidityPressure
High97 °F (Jul 8, 2:53 PM)76% (Jul 11, 1:53 AM)30.13 "Hg (Jul 11, 1:53 AM)
Low57 °F (Jul 22, 5:53 AM)7% (Jul 22, 5:53 PM)29.73 "Hg (Jul 17, 6:53 PM)
Average78 °F35%29.94 "Hg
* Reported Jul 7 9:53 PM — Jul 22 9:53 PM, Farmington, Weather by CustomWeather, © 2014

Note: Actual official high and low records may vary slightly from our data, if they occured in-between our weather recording intervals... More about our weather records

Advertising

Farmington weather history for previous 24 hours

 ConditionsComfort  
Time TempWeatherWind HumidityBarometerVisibility
9:53 PM
Jul 22
88 °FLight rain. Clear.22 mph16%30.03 "Hg10 mi
8:53 PM87 °FSunny.3 mph12%29.98 "Hg10 mi
7:53 PM91 °FSunny.6 mph9%29.96 "Hg10 mi
6:53 PM95 °FSunny.10 mph8%29.96 "Hg10 mi
5:53 PM97 °FSunny.10 mph7%29.97 "Hg10 mi
10:53 AM85 °FSunny.3 mph17%30.09 "Hg10 mi
9:53 AM78 °FSunny.5 mph23%30.09 "Hg10 mi
8:53 AM73 °FSunny.6 mph26%30.10 "Hg10 mi
7:53 AM67 °FSunny.8 mph31%30.11 "Hg10 mi
6:53 AM61 °FClear.7 mph31%30.09 "Hg10 mi
5:53 AM57 °FClear.7 mph31%30.08 "Hg10 mi
4:53 AM59 °FClear.5 mph29%30.06 "Hg10 mi
3:53 AM63 °FClear.5 mph35%30.04 "Hg10 mi
2:53 AM65 °FClear.9 mph26%30.02 "Hg10 mi
1:53 AM65 °FClear.6 mph25%30.02 "Hg10 mi
12:53 AM71 °FClear.No wind20%30.01 "Hg10 mi
11:53 PM
Jul 21
70 °FClear.No wind21%30.00 "Hg10 mi
Weather by CustomWeather, © 2014

See weather overviewHow to use our weather pages